FW7011 Weather Reports


time (UTC)temp
C
wind
direction
speed
KPH
gust
KPH
rain 1hr
cm
rain 24hr
cm
rain mn
cm
humidity
%
barometer
mb
20260906102125 -17 75 4.8 4.8 0.00 0.00 0.00 1015.2
20260906101620 -17 87 3.2 4.8 0.00 0.00 0.00 1015.1
20260906101115 -17 96 1.6 8.0 0.00 0.00 0.00 1014.9
20260906100610 -17 9 0.0 4.8 0.00 0.00 0.00 1015.1
20260906100111 -17 117 0.0 3.2 0.00 0.00 0.00 1015.2
20260906095610 -17 265 1.6 4.8 0.00 0.00 0.00 1014.9
20260906095106 -17 196 3.2 4.8 0.00 0.00 0.00 1014.7
20260906094605 -17 112 4.8 8.0 0.00 0.00 0.00 1014.4
20260906094101 -17 111 4.8 6.4 0.00 0.00 0.00 1014.4
20260906093556 -17 125 1.6 4.8 0.00 0.00 0.00 1014.3
20260906093051 -17 107 4.8 8.0 0.00 0.00 0.00 1014.3
20260906092546 -17 107 6.4 8.0 0.00 0.00 0.00 1014.2
20260906092041 -17 118 3.2 6.4 0.00 0.00 0.00 1014.3
20260906091537 -17 95 1.6 3.2 0.00 0.00 0.00 1014.3
20260906091033 -17 224 1.6 3.2 0.00 0.00 0.00 1014.4
20260906090528 -17 92 1.6 4.8 0.00 0.00 0.00 1014.1
20260906090023 -17 111 4.8 6.4 0.00 0.00 0.00 1014.3
20260906085521 -17 112 4.8 8.0 0.00 0.00 0.00 1014.2
20260906085021 -17 100 4.8 6.4 0.00 0.00 0.00 1014.3
20260906084516 -17 54 3.2 3.2 0.00 0.00 0.00 1014.5
20260906084015 -17 161 1.6 1.6 0.00 0.00 0.00 1014.4
20260906083511 -17 240 3.2 3.2 0.00 0.00 0.00 1014.5
20260906083010 -17 118 3.2 4.8 0.00 0.00 0.00 1014.2
20260906082505 -17 114 3.2 3.2 0.00 0.00 0.00 1014.2
20260906082001 -17 128 3.2 3.2 0.00 0.00 0.00 1014.2
20260906081456 -17 113 4.8 6.4 0.00 0.00 0.00 1014.3
20260906080952 -17 108 4.8 4.8 0.00 0.00 0.00 1014.1
20260906080448 -17 49 0.0 4.8 0.00 0.00 0.00 1014.3
20260906075943 -17 60 0.0 3.2 0.00 0.00 0.00 1014.6
20260906075438 -17 73 1.6 3.2 0.00 0.00 0.00 1014.2
20260906074933 -17 15 0.0 1.6 0.00 0.00 0.00 1014.4
20260906074433 -17 66 1.6 4.8 0.00 0.00 0.00 1014.4
20260906073931 -17 125 3.2 6.4 0.00 0.00 0.00 1014.2
20260906073426 -17 71 3.2 3.2 0.00 0.00 0.00 1014.4
20260906072923 -17 47 0.0 3.2 0.00 0.00 0.00 1014.5
20260906072418 -17 145 1.6 4.8 0.00 0.00 0.00 1014.3
20260906071913 -17 118 4.8 8.0 0.00 0.00 0.00 1014.2
20260906071404 -17 118 4.8 8.0 0.00 0.00 0.00 1014.3
20260906070900 -17 117 4.8 8.0 0.00 0.00 0.00 1014.3
20260906070355 -17 114 6.4 6.4 0.00 0.00 0.00 1014.6
20260906065851 -17 123 4.8 6.4 0.00 0.00 0.00 1014.6
20260906065345 -17 126 6.4 8.0 0.00 0.00 0.00 1014.6
20260906064841 -17 129 4.8 8.0 0.00 0.00 0.00 1014.7
20260906064337 -17 123 0.0 3.2 0.00 0.00 0.00 1014.7
20260906063837 -17 116 4.8 4.8 0.00 0.00 0.00 1014.7
20260906063332 -17 132 3.2 6.4 0.00 0.00 0.00 1014.5
20260906062827 -17 125 3.2 4.8 0.00 0.00 0.00 1014.7
20260906062326 -17 117 1.6 4.8 0.00 0.00 0.00 1014.7
20260906061822 -17 65 3.2 4.8 0.00 0.00 0.00 1014.7
20260906061318 -17 49 3.2 4.8 0.00 0.00 0.00 1014.9
20260906060813 -17 47 3.2 3.2 0.00 0.00 0.00 1014.9
20260906060311 -17 61 1.6 4.8 0.00 0.00 0.00 1014.8
20260906055807 -17 76 0.0 3.2 0.00 0.00 0.00 1015.0
20260906055306 -17 231 0.0 3.2 0.00 0.00 0.00 1014.9
20260906054756 -17 141 3.2 4.8 0.00 0.00 0.00 1014.8
20260906054252 -17 50 1.6 4.8 0.00 0.00 0.00 1014.7
20260906053748 -17 15 3.2 4.8 0.00 0.00 0.00 1014.7
20260906053244 -17 105 1.6 4.8 0.00 0.00 0.00 1014.9
20260906052739 -17 135 4.8 8.0 0.00 0.00 0.00 1014.8
20260906052235 -17 116 6.4 6.4 0.00 0.00 0.00 1015.0
20260906051732 -17 76 0.0 4.8 0.00 0.00 0.00 1015.1
20260906051231 -17 102 0.0 4.8 0.00 0.00 0.00 1014.9
20260906050726 -17 125 3.2 6.4 0.00 0.00 0.00 1015.1
20260906050222 -17 126 4.8 6.4 0.00 0.00 0.00 1014.9
20260906045720 -17 106 3.2 4.8 0.00 0.00 0.00 1014.9
20260906045216 -17 111 3.2 6.4 0.00 0.00 0.00 1015.0
20260906044711 -17 119 4.8 6.4 0.00 0.00 0.00 1014.8
20260906044206 -17 121 4.8 6.4 0.00 0.00 0.00 1015.1
20260906043702 -17 119 6.4 8.0 0.00 0.00 0.00 1014.9
20260906043157 -17 119 6.4 9.7 0.00 0.00 0.00 1014.9
20260906042657 -17 26 4.8 8.0 0.00 0.00 0.00 1014.8
20260906042151 -17 21 3.2 8.0 0.00 0.00 0.00 1014.8
20260906041647 -17 24 4.8 4.8 0.00 0.00 0.00 1015.1
20260906041142 -17 82 3.2 4.8 0.00 0.00 0.00 1014.9
20260906040637 -17 107 1.6 4.8 0.00 0.00 0.00 1015.0
20260906040133 -17 106 3.2 6.4 0.00 0.00 0.00 1014.9
20260906035628 -17 67 4.8 4.8 0.00 0.00 0.00 1015.0
20260906035124 -17 106 4.8 6.4 0.00 0.00 0.00 1015.0
20260906034624 -17 113 6.4 6.4 0.00 0.00 0.00 1015.0
20260906034118 -17 101 3.2 4.8 0.00 0.00 0.00 1015.1
20260906033614 -17 125 3.2 6.4 0.00 0.00 0.00 1015.1
20260906033108 -17 126 4.8 6.4 0.00 0.00 0.00 1014.9
20260906032606 -17 122 3.2 4.8 0.00 0.00 0.00 1015.2
20260906032100 -17 118 4.8 4.8 0.00 0.00 0.00 1015.1
20260906031555 -17 99 3.2 4.8 0.00 0.00 0.00 1015.1
20260906031051 -17 108 0.0 4.8 0.00 0.00 0.00 1015.4
20260906030550 -17 132 4.8 4.8 0.00 0.00 0.00 1015.4
20260906030049 -17 109 3.2 4.8 0.00 0.00 0.00 1015.2
20260906025544 -17 86 0.0 3.2 0.00 0.00 0.00 1015.4
20260906025042 -17 88 1.6 3.2 0.00 0.00 0.00 1015.2
20260906024538 -17 82 0.0 4.8 0.00 0.00 0.00 1015.1
20260906024037 -17 104 3.2 4.8 0.00 0.00 0.00 1015.1
20260906023534 -17 108 6.4 6.4 0.00 0.00 0.00 1015.1
20260906023028 -17 122 4.8 6.4 0.00 0.00 0.00 1015.2
20260906022523 -17 135 4.8 4.8 0.00 0.00 0.00 1015.3
20260906022013 -17 130 4.8 6.4 0.00 0.00 0.00 1015.0
20260906021509 -17 123 4.8 6.4 0.00 0.00 0.00 1015.0
20260906021003 -17 111 3.2 4.8 0.00 0.00 0.00 1015.2
20260906020502 -17 110 3.2 3.2 0.00 0.00 0.00 1015.0
20260906020001 -17 84 0.0 3.2 0.00 0.00 0.00 1015.0
20260906015501 -17 119 4.8 4.8 0.00 0.00 0.00 1015.1
20260906015001 -17 120 3.2 4.8 0.00 0.00 0.00 1015.1
20260906014455 -17 110 3.2 4.8 0.00 0.00 0.00 1014.8
20260906013951 -17 117 6.4 6.4 0.00 0.00 0.00 1014.8
20260906013447 -17 112 6.4 6.4 0.00 0.00 0.00 1014.8
20260906012942 -17 116 4.8 6.4 0.00 0.00 0.00 1014.9
20260906012437 -17 112 1.6 4.8 0.00 0.00 0.00 1014.5
20260906011936 -17 97 1.6 6.4 0.00 0.00 0.00 1014.6
20260906011432 -17 73 1.6 3.2 0.00 0.00 0.00 1014.5
20260906010927 -17 95 3.2 3.2 0.00 0.00 0.00 1014.9
20260906010422 -17 101 4.8 6.4 0.00 0.00 0.00 1014.6
20260906005919 -17 111 4.8 6.4 0.00 0.00 0.00 1014.5
20260906005418 -17 106 6.4 6.4 0.00 0.00 0.00 1014.5
20260906004916 -17 99 6.4 6.4 0.00 0.00 0.00 1014.3
20260906004411 -17 106 6.4 6.4 0.00 0.00 0.00 1014.2
20260906003907 -17 107 6.4 6.4 0.00 0.00 0.00 1014.2
20260906003402 -17 51 3.2 4.8 0.00 0.00 0.00 1014.3
20260906002857 -17 99 4.8 4.8 0.00 0.00 0.00 1014.2
20260906002356 -17 104 4.8 6.4 0.00 0.00 0.00 1014.2
20260906001852 -17 96 4.8 6.4 0.00 0.00 0.00 1014.2
20260906001348 -17 119 4.8 6.4 0.00 0.00 0.00 1013.8
20260906000842 -17 116 6.4 6.4 0.00 0.00 0.00 1013.9
20260906000342 -17 106 6.4 6.4 0.00 0.00 0.00 1013.9
20260905235837 -17 102 4.8 4.8 0.00 0.00 0.00 1013.8
20260905235331 -17 116 3.2 4.8 0.00 0.00 0.00 1013.7
20260905234827 -17 115 4.8 4.8 0.00 0.00 0.00 1013.9
20260905234322 -17 119 4.8 4.8 0.00 0.00 0.00 1013.4
20260905233817 -17 132 3.2 6.4 0.00 0.00 0.00 1013.7
20260905233312 -17 113 3.2 4.8 0.00 0.00 0.00 1013.7
20260905232811 -17 107 1.6 4.8 0.00 0.00 0.00 1013.6
20260905232308 -17 139 3.2 4.8 0.00 0.00 0.00 1013.3
20260905231803 -17 189 0.0 1.6 0.00 0.00 0.00 1013.3
20260905231258 -17 197 0.0 3.2 0.00 0.00 0.00 1013.7
20260905230754 -17 296 1.6 3.2 0.00 0.00 0.00 1013.6
20260905230252 -17 264 0.0 3.2 0.00 0.00 0.00 1013.7
20260905225751 -17 245 1.6 3.2 0.00 0.00 0.00 1013.7
20260905225247 -17 309 0.0 1.6 0.00 0.00 0.00 1013.7
20260905224746 -17 305 3.2 4.8 0.00 0.00 0.00 1013.8
20260905224242 -17 306 1.6 4.8 0.00 0.00 0.00 1014.0
20260905223737 -17 336 4.8 4.8 0.00 0.00 0.00 1013.8
20260905223234 -17 337 4.8 6.4 0.00 0.00 0.00 1013.6
20260905222730 -17 320 3.2 6.4 0.00 0.00 0.00 1013.7
20260905222229 -17 305 3.2 4.8 0.00 0.00 0.00 1013.7
20260905221725 -17 299 4.8 9.7 0.00 0.00 0.00 1013.8
20260905221221 -17 288 1.6 6.4 0.00 0.00 0.00 1013.8
20260905220717 -17 313 4.8 9.7 0.00 0.00 0.00 1013.7
20260905220213 -17 264 4.8 6.4 0.00 0.00 0.00 1013.8
20260905215712 -17 277 4.8 6.4 0.00 0.00 0.00 1013.8
20260905215208 -17 344 6.4 8.0 0.00 0.00 0.00 1013.8
20260905214704 -17 255 8.0 16.1 0.00 0.00 0.00 1013.8
20260905214159 -17 232 8.0 9.7 0.00 0.00 0.00 1013.9
20260905213654 -17 281 6.4 8.0 0.00 0.00 0.00 1013.7
20260905213150 -17 288 3.2 9.7 0.00 0.00 0.00 1013.8
20260905212645 -17 17 0.0 6.4 0.00 0.00 0.00 1013.7
20260905212144 -17 314 6.4 12.9 0.00 0.00 0.00 1013.6
20260905211639 -17 258 4.8 9.7 0.00 0.00 0.00 1013.9
20260905211134 -17 288 6.4 6.4 0.00 0.00 0.00 1013.8
20260905210631 -17 328 4.8 14.5 0.00 0.00 0.00 1013.6
20260905210125 -17 255 3.2 8.0 0.00 0.00 0.00 1013.4
20260905205624 -17 288 4.8 9.7 0.00 0.00 0.00 1013.6
20260905205124 -17 254 9.7 11.3 0.00 0.00 0.00 1013.7
20260905204624 -17 251 6.4 9.7 0.00 0.00 0.00 1013.8
20260905204120 -17 288 8.0 8.0 0.00 0.00 0.00 1014.0
20260905203619 -17 248 6.4 8.0 0.00 0.00 0.00 1013.9
20260905203115 -17 233 6.4 8.0 0.00 0.00 0.00 1014.1
20260905202610 -17 287 4.8 6.4 0.00 0.00 0.00 1013.9
20260905202105 -17 241 8.0 8.0 0.00 0.00 0.00 1013.9
20260905201601 -17 220 8.0 14.5 0.00 0.00 0.00 1014.2
20260905201100 -17 233 11.3 12.9 0.00 0.00 0.00 1013.9
20260905200556 -17 253 3.2 9.7 0.00 0.00 0.00 1013.9
20260905200056 -17 263 4.8 6.4 0.00 0.00 0.00 1013.8
20260905195550 -17 251 8.0 8.0 0.00 0.00 0.00 1013.9
20260905195046 -17 282 4.8 9.7 0.00 0.00 0.00 1013.8
20260905194545 -17 231 9.7 9.7 0.00 0.00 0.00 1014.0
20260905194044 -17 267 9.7 9.7 0.00 0.00 0.00 1013.7
20260905193539 -17 267 4.8 8.0 0.00 0.00 0.00 1013.8
20260905193035 -17 280 4.8 4.8 0.00 0.00 0.00 1013.4
20260905192530 -17 179 1.6 3.2 0.00 0.00 0.00 1013.6
20260905192027 -17 232 3.2 6.4 0.00 0.00 0.00 1013.7
20260905191524 -17 246 3.2 6.4 0.00 0.00 0.00 1013.0
20260905191024 -17 231 0.0 6.4 0.00 0.00 0.00 1012.8
20260905190522 -17 225 4.8 8.0 0.00 0.00 0.00 1013.3
20260905190022 -17 273 3.2 8.0 0.00 0.00 0.00 1013.2
20260905185516 -17 1 4.8 4.8 0.00 0.00 0.00 1013.4
20260905185015 -17 48 3.2 4.8 0.00 0.00 0.00 1013.9
20260905184510 -17 279 6.4 16.1 0.00 0.00 0.00 1014.2
20260905184009 -17 34 8.0 9.7 0.00 0.00 0.00 1014.3
20260905183508 -17 330 6.4 16.1 0.00 0.00 0.00 1014.3
20260905183003 -17 281 11.3 11.3 0.00 0.00 0.00 1012.7
20260905182503 -17 19 0.0 9.7 0.00 0.00 0.00 1012.6
20260905181957 -17 118 4.8 8.0 0.00 0.00 0.00 1013.0
20260905181453 -17 181 0.0 8.0 0.00 0.00 0.00 1013.6
20260905180951 -17 105 9.7 16.1 0.00 0.00 0.00 1013.9
20260905180446 -17 119 9.7 9.7 0.00 0.00 0.00 1014.0
20260905175942 -17 10 4.8 6.4 0.00 0.00 0.00 1014.5
20260905175441 -17 151 0.0 4.8 0.00 0.00 0.00 1015.4
20260905174937 -17 218 0.0 4.8 0.00 0.00 0.00 1015.2
20260905174432 -17 259 4.8 6.4 0.00 0.00 0.00 1015.5
20260905173927 -17 29 4.8 14.5 0.00 0.00 0.00 1015.5
20260905173424 -17 327 4.8 17.7 0.00 0.00 0.00 1015.7
20260905172919 -17 338 9.7 12.9 0.00 0.00 0.00 1015.9
20260905172417 -17 294 6.4 11.3 0.00 0.00 0.00 1016.1
20260905171913 -17 248 4.8 14.5 0.00 0.00 0.00 1016.8
20260905171409 -17 351 4.8 22.5 0.00 0.00 0.00 1016.7
20260905170905 -17 329 3.2 14.5 0.00 0.00 0.00 1016.5
20260905170401 -17 299 11.3 25.7 0.00 0.00 0.00 1016.1
20260905165900 -17 345 9.7 19.3 0.00 0.00 0.00 1016.1
20260905165356 -17 299 9.7 12.9 0.00 0.00 0.00 1015.8
20260905164850 -17 356 4.8 8.0 0.00 0.00 0.00 1015.8
20260905164345 -17 266 8.0 16.1 0.00 0.00 0.00 1016.0
20260905163840 -17 316 8.0 11.3 0.00 0.00 0.00 1016.1
20260905163337 -17 240 14.5 17.7 0.00 0.00 0.00 1015.8
20260905162832 -17 285 8.0 8.0 0.00 0.00 0.00 1015.7
20260905162326 -17 329 8.0 9.7 0.00 0.00 0.00 1015.9
20260905161821 -17 299 4.8 8.0 0.00 0.00 0.00 1015.7
20260905161320 -17 14 4.8 8.0 0.00 0.00 0.00 1015.6
20260905160819 -17 71 4.8 9.7 0.00 0.00 0.00 1015.8
20260905160313 -17 15 4.8 11.3 0.00 0.00 0.00 1015.8
20260905155808 -17 35 3.2 8.0 0.00 0.00 0.00 1015.8
20260905155307 -17 1 8.0 8.0 0.00 0.00 0.00 1015.9
20260905154801 -17 264 4.8 4.8 0.00 0.00 0.00 1015.9
20260905154257 -17 246 0.0 6.4 0.00 0.00 0.00 1015.8
20260905153752 -17 246 4.8 6.4 0.00 0.00 0.00 1016.0
20260905153248 -17 44 3.2 4.8 0.00 0.00 0.00 1016.1
20260905152742 -17 261 3.2 6.4 0.00 0.00 0.00 1016.1
20260905152237 -17 281 4.8 4.8 0.00 0.00 0.00 1016.1
20260905151736 -17 245 0.0 8.0 0.00 0.00 0.00 1015.8
20260905151232 -17 193 0.0 3.2 0.00 0.00 0.00 1015.7
20260905150726 -17 112 1.6 3.2 0.00 0.00 0.00 1015.9
20260905150225 -17 246 6.4 8.0 0.00 0.00 0.00 1015.7
20260905145723 -17 229 0.0 6.4 0.00 0.00 0.00 1015.8
20260905145218 -17 248 3.2 6.4 0.00 0.00 0.00 1015.9
20260905144718 -17 333 0.0 3.2 0.00 0.00 0.00 1015.8
20260905144218 -17 259 6.4 8.0 0.00 0.00 0.00 1015.9
20260905143712 -17 311 3.2 4.8 0.00 0.00 0.00 1015.9
20260905143212 -17 238 4.8 6.4 0.00 0.00 0.00 1015.8
20260905142710 -17 276 3.2 4.8 0.00 0.00 0.00 1015.9
20260905142205 -17 321 0.0 4.8 0.00 0.00 0.00 1015.9
20260905141700 -17 249 0.0 4.8 0.00 0.00 0.00 1015.8
20260905141156 -17 285 0.0 6.4 0.00 0.00 0.00 1016.1
20260905140651 -17 267 3.2 6.4 0.00 0.00 0.00 1015.5
20260905140151 -17 249 4.8 4.8 0.00 0.00 0.00 1015.8
20260905135645 -17 230 0.0 3.2 0.00 0.00 0.00 1015.6
20260905135136 -17 174 0.0 3.2 0.00 0.00 0.00 1015.6
20260905134630 -17 336 0.0 3.2 0.00 0.00 0.00 1015.5
20260905134129 -17 200 1.6 3.2 0.00 0.00 0.00 1015.7
20260905133624 -17 123 3.2 3.2 0.00 0.00 0.00 1015.8
20260905133119 -17 123 3.2 4.8 0.00 0.00 0.00 1015.9
20260905132619 -17 159 1.6 1.6 0.00 0.00 0.00 1015.8
20260905132113 -17 282 3.2 3.2 0.00 0.00 0.00 1015.9
20260905131609 -17 265 1.6 4.8 0.00 0.00 0.00 1015.9
20260905131104 -17 232 3.2 4.8 0.00 0.00 0.00 1015.8
20260905130603 -17 265 0.0 1.6 0.00 0.00 0.00 1015.6
20260905130058 -17 296 0.0 1.6 0.00 0.00 0.00 1015.9
20260905125557 -17 246 0.0 1.6 0.00 0.00 0.00 1015.9
20260905125053 -17 223 0.0 3.2 0.00 0.00 0.00 1016.0
20260905124550 -17 132 3.2 4.8 0.00 0.00 0.00 1016.0
20260905124045 -17 118 3.2 3.2 0.00 0.00 0.00 1016.1
20260905123540 -17 199 1.6 4.8 0.00 0.00 0.00 1015.9
20260905123037 -17 117 3.2 4.8 0.00 0.00 0.00 1016.1
20260905122537 -17 112 4.8 4.8 0.00 0.00 0.00 1016.1
20260905122032 -17 59 0.0 3.2 0.00 0.00 0.00 1016.0
20260905121532 -17 66 0.0 4.8 0.00 0.00 0.00 1016.2
20260905121026 -17 354 0.0 1.6 0.00 0.00 0.00 1016.2
20260905120521 -17 113 0.0 4.8 0.00 0.00 0.00 1016.1
20260905120016 -17 93 3.2 6.4 0.00 0.00 0.00 1016.0
20260905115514 -17 118 4.8 4.8 0.00 0.00 0.00 1016.2
20260905115009 -17 119 4.8 6.4 0.00 0.00 0.00 1016.0
20260905114504 -17 125 3.2 4.8 0.00 0.00 0.00 1016.0
20260905114003 -17 111 3.2 3.2 0.00 0.00 0.00 1015.8
20260905113458 -17 89 1.6 4.8 0.00 0.00 0.00 1015.8
20260905112953 -17 132 3.2 4.8 0.00 0.00 0.00 1015.7
20260905112448 -17 123 3.2 3.2 0.00 0.00 0.00 1015.8
20260905111944 -17 132 1.6 3.2 0.00 0.00 0.00 1015.6
20260905111443 -17 180 0.0 1.6 0.00 0.00 0.00 1015.7
20260905110938 -17 353 0.0 3.2 0.00 0.00 0.00 1015.3
20260905110431 -17 65 3.2 3.2 0.00 0.00 0.00 1015.5
20260905105932 -17 114 0.0 3.2 0.00 0.00 0.00 1015.3
20260905105426 -17 111 0.0 3.2 0.00 0.00 0.00 1015.5
20260905104925 -17 128 4.8 9.7 0.00 0.00 0.00 1015.5
20260905104421 -17 118 6.4 8.0 0.00 0.00 0.00 1015.4
20260905103916 -17 96 8.0 9.7 0.00 0.00 0.00 1015.4
20260905103412 -17 108 6.4 8.0 0.00 0.00 0.00 1015.4
20260905102907 -17 114 4.8 4.8 0.00 0.00 0.00 1015.5